Homestead AFB, FL

6:07 PM EST on November 23, 2017 (GMT -0500)
Dade County-Homestead Regional

Weather History for KHST - September, 2013

Change the Weather History Date:

Saturday, September 28, 2013

  Actual Average Record
Temperature  
Mean Temperature 80 °F -  
Max Temperature 86 °F 88 °F 94 °F (1974)
Min Temperature 74 °F 71 °F 67 °F (1942)
Cooling Degree Days 15    
Growing Degree Days 30 (Base 50)    
Moisture  
Dew Point 73 °F    
Average Humidity 81    
Maximum Humidity 94    
Minimum Humidity 65    
Precipitation  
Precipitation 0.01 in - - ()
Sea Level Pressure  
Sea Level Pressure 29.93 in    
Wind  
Wind Speed 5 mph (NE)    
Max Wind Speed 14 mph    
Max Gust Speed -    
Visibility 10 miles    
Events Rain    
Averages and records for this station are not official NWS values.
T = Trace of Precipitation, MM = Missing Value Source: NWS Daily Summary

Daily Weather History Graph

Daily Weather History Graph

Search for Another Location

Airport or City:

Trip Planner

Search our weather history database for the weather conditions in past years. The results will help you decide how hot, cold, wet, or windy it might be!

Date:

Astronomy

Sep. 28, 2013 Rise Set
Actual Time 7:12 AM EDT 7:11 PM EDT
Civil Twilight 6:49 AM EDT 7:34 PM EDT
Nautical Twilight 6:23 AM EDT 8:00 PM EDT
Astronomical Twilight 5:56 AM EDT 8:27 PM EDT
Moon 1:29 AM EDT (9/28) 3:00 PM EDT (9/28)
Length of Visible Light 12h 44m
Length of Day
11h 58m
Last Quarter, 36% of the Moon is Illuminated
Sep 28
Last Quarter
Oct 4
New
Oct 11
First Quarter
Oct 18
Full
Oct 26
Last Quarter

Hourly Weather History & Observations

Time (EDT) Temp. Heat Index Dew Point Humidity Pressure Visibility Wind Dir Wind Speed Gust Speed Precip Events Conditions
12:58 AM 76.1 °F - 71.8 °F 86% 29.92 in 10.0 mi Calm Calm - N/A   Clear
1:58 AM 74.3 °F - 72.5 °F 94% 29.91 in 10.0 mi West 4.6 mph - N/A   Clear
2:58 AM 75.4 °F - 71.6 °F 88% 29.90 in 10.0 mi WNW 3.5 mph - N/A   Partly Cloudy
3:58 AM 74.8 °F - 71.4 °F 89% 29.90 in 10.0 mi NW 3.5 mph - N/A   Partly Cloudy
4:58 AM 75.2 °F - 72.5 °F 91% 29.89 in 10.0 mi Variable 3.5 mph - N/A   Clear
5:58 AM 75.4 °F - 72.7 °F 91% 29.90 in 10.0 mi Variable 5.8 mph - N/A   Clear
6:58 AM 74.7 °F - 72.1 °F 92% 29.91 in 10.0 mi North 2.3 mph - N/A   Clear
7:58 AM 75.2 °F - 72.7 °F 92% 29.93 in 10.0 mi North 5.8 mph - N/A   Clear
8:58 AM 79.7 °F - 73.4 °F 81% 29.95 in 10.0 mi North 6.9 mph - N/A   Clear
9:58 AM 82.6 °F 88.8 °F 73.9 °F 75% 29.97 in 10.0 mi North 5.8 mph - N/A   Clear
10:58 AM 85.6 °F 93.4 °F 74.1 °F 68% 29.97 in 10.0 mi ENE 8.1 mph - N/A   Scattered Clouds
11:58 AM 85.6 °F 93.4 °F 73.9 °F 68% 29.97 in 10.0 mi East 8.1 mph - N/A   Clear
12:58 PM 85.3 °F 93.4 °F 74.3 °F 70% 29.96 in 10.0 mi ENE 13.8 mph - N/A   Clear
1:58 PM 86.0 °F 93.4 °F 73.4 °F 66% 29.94 in 10.0 mi ENE 11.5 mph - N/A   Clear
2:58 PM 86.5 °F 94.2 °F 73.4 °F 65% 29.92 in 10.0 mi ENE 10.4 mph - N/A   Clear
3:58 PM 84.2 °F 90.6 °F 73.2 °F 69% 29.90 in 10.0 mi East 10.4 mph - N/A   Clear
4:58 PM 84.6 °F 91.0 °F 73.0 °F 68% 29.90 in 10.0 mi East 9.2 mph - N/A   Clear
5:58 PM 82.4 °F 88.2 °F 73.2 °F 74% 29.92 in 10.0 mi ENE 5.8 mph - N/A   Partly Cloudy
6:58 PM 81.7 °F 86.7 °F 72.7 °F 74% 29.92 in 10.0 mi East 5.8 mph - N/A   Partly Cloudy
7:41 PM 80.6 °F 85.4 °F 73.4 °F 79% 29.92 in 9.0 mi NE 8.1 mph - N/A Rain Light Rain
7:46 PM 80.6 °F 86.2 °F 75.2 °F 84% 29.92 in 6.0 mi ENE 6.9 mph - N/A Rain Rain
7:51 PM 80.6 °F 86.2 °F 75.2 °F 84% 29.92 in 7.0 mi East 4.6 mph - N/A Rain Light Rain
7:58 PM 79.7 °F - 74.7 °F 84% 29.94 in 10.0 mi East 6.9 mph - 0.01 in Rain Light Rain
8:03 PM 78.8 °F - 75.2 °F 89% 29.93 in 10.0 mi East 4.6 mph - N/A   Partly Cloudy
8:58 PM 79.2 °F - 73.8 °F 83% 29.95 in 10.0 mi North 13.8 mph - 0.00 in   Scattered Clouds
9:23 PM 77.0 °F - 73.4 °F 89% 29.95 in 10.0 mi NE 8.1 mph - N/A   Light Drizzle
9:47 PM 77.0 °F - 73.4 °F 89% 29.96 in 10.0 mi NE 4.6 mph - N/A   Clear
9:58 PM 78.1 °F - 73.4 °F 85% 29.97 in 10.0 mi NE 4.6 mph - 0.00 in   Clear
10:58 PM 78.8 °F - 74.3 °F 86% 29.96 in 10.0 mi North 8.1 mph - N/A   Scattered Clouds
11:58 PM 77.2 °F - 74.1 °F 90% 29.96 in 10.0 mi NE 3.5 mph - N/A   Partly Cloudy